Location: Sternwarte auf dem Internationalen Platz Vogelsang IP
(50.5721°N, 6.4398°E)
Time: 18:44:12
(UTC+01:00)

Transit 2A Rocket - Pass Details

Date: 18 December 2025
Orbit: 581 x 903 km, 66.7° (Epoch: 15 January)

Event Time Altitude Azimuth Distance (km) Brightness Sun altitude
Rises 14:42:57 0° 321° (NW) 3,533 8.2 10.5°
Reaches altitude 10° 14:45:41 10° 330° (NNW) 2,591 7.5 10.3°
Maximum altitude 14:51:18 38° 37° (NE) 1,331 5.9 9.8°
Drops below altitude 10° 14:56:44 10° 105° (ESE) 2,495 7.5 9.3°
Sets 14:59:19 0° 114° (ESE) 3,389 8.2 9.1°
